[[{"header":{"parameterUnit":"m.s-1","parameterCategory":1,"la1":30.2991,"la2":30.254,"lo1":-89.0895,"lo2":-89.0444,"dy":0.0017,"dx":0.0017,"nx":28,"ny":28,"refTime":"2023-10-25T09:00:00:Z","depth":0,"parameterNumber":2,"parameterNumberName":"U-component_of_WINDS"},"data":[0,0,0,0,0,0,0,0,0,0,0,0,0,0,0,0,0,0,0,0,0,0,0,0,0,0,0,0,0,0,0,0,0,0,0,0,0,0,0,0,0,0,0,0,0,0,0,0,0,0,0,0,0,0,0,0,0,0,-4.7515,-4.7515,0,-4.7494,-4.7494,-4.7494,-4.7297,-4.7292,-4.7287,-4.7282,-4.7264,-4.7268,-4.7272,0,0,0,0,0,0,0,0,0,0,0,0,0,-4.7387,-4.7391,-4.7515,-4.7515,-4.7514,-4.7494,-4.7494,-4.7494,-4.7298,-4.7292,-4.7286,-4.728,-4.7263,-4.7268,-4.7273,0,0,0,0,0,0,0,0,0,0,0,0,0,-4.7413,-4.7392,-4.7515,-4.7414,-4.7405,-4.7494,-4.7494,-4.7494,-4.7299,-4.7291,-4.7284,-4.7277,-4.7261,-4.7267,-4.7273,-4.7459,0,0,-4.7292,-4.7295,0,0,0,0,0,0,0,0,-4.7411,-4.7417,-4.7429,-4.7421,-4.7411,-4.739,-4.7442,-4.7482,-4.7301,-4.7339,-4.7282,-4.7274,-4.7312,-4.7314,-4.7326,-4.7458,-4.7457,-4.7293,-4.7296,-4.7299,-4.7301,0,0,0,0,0,0,0,-4.741,-4.7417,-4.7507,-4.743,-4.7419,-4.7371,-4.7366,-4.7449,-4.7368,-4.7335,-4.7321,-4.7321,-4.7306,-4.7321,-4.7324,-4.7457,-4.7292,-4.7298,-4.7302,-4.7304,-4.7741,-4.7749,0,0,0,0,0,0,-4.7422,-4.7417,-4.7507,-4.7506,-4.7393,-4.7379,-4.7374,-4.7405,-4.7366,-4.7353,-4.7327,-4.7312,-4.7314,-4.7317,-4.7323,-4.7537,-4.7299,-4.7305,-4.7308,-4.7733,-4.7743,-4.7751,0,0,0,0,0,0,-4.742,-4.7432,-4.7508,-4.7458,-4.7464,-4.7389,-4.7425,-4.7408,-4.7422,-4.736,-4.7345,-4.7357,-4.7308,-4.7314,-4.7426,-4.7534,-4.7307,-4.7313,-4.7724,-4.7736,-4.7747,-4.7969,0,0,0,0,0,0,-4.7417,-4.7432,-4.7501,-4.7461,-4.7467,-4.7612,-4.7432,-4.7413,-4.7433,-4.7413,-4.7384,-4.7372,-4.7303,-4.7418,-4.7433,-4.7539,-4.7318,-4.7714,-4.7729,-4.7743,-4.7952,-4.7987,-4.8017,0,0,0,0,0,-4.7413,-4.7565,-4.7506,-4.7518,-4.7552,-4.7618,-4.7622,-4.7538,-4.7443,-4.7512,-4.7472,-4.7373,-4.7521,-4.7432,-4.7446,-4.7555,-4.7707,-4.7725,-4.7742,-4.7937,-4.798,-4.8016,0,0,0,0,0,0,-4.762,-4.7558,-4.7491,-4.7634,-4.7633,-4.7585,-4.7669,-4.7587,-4.7613,-4.7593,-4.7489,-4.7484,-4.7613,-4.7595,-4.7497,-4.7734,-4.7597,-4.7618,-4.774,-4.778,-4.7812,-4.7813,-4.7323,0,0,0,0,0,-4.7683,-4.7741,-4.7683,-4.7815,-4.7818,-4.7745,-4.7771,-4.7706,-4.7701,-4.77,-4.7668,-4.7668,-4.7713,-4.7746,-4.7785,-4.7949,-4.794,-4.8032,-4.8064,-4.8091,-4.8111,-4.8197,-4.8237,-4.781,-4.781,-4.7809,0,0,-4.7812,-4.7785,-4.7828,-4.7856,-4.7848,-4.7911,-4.7745,-4.782,-4.7866,-4.7711,-4.7814,-4.7792,-4.7785,-4.7924,-4.7984,-4.7913,-4.8227,-4.8114,-4.8136,-4.8141,-4.8219,-4.826,-4.8296,-4.7822,-4.782,-4.7818,0,0,-4.8079,-4.8065,-4.8173,-4.8168,-4.8157,-4.8108,-4.8135,-4.8099,-4.8078,-4.818,-4.8066,-4.812,-4.8202,-4.8201,-4.8212,-4.8482,-4.8392,-4.8498,-4.8669,-4.8754,-4.8787,-4.8816,-4.8912,-4.8948,-4.8518,-4.8519,-4.8519,0,-4.8241,-4.8331,-4.8239,-4.8321,-4.8337,-4.8201,-4.831,-4.831,-4.8313,-4.8328,-4.825,-4.8349,-4.8335,-4.8472,-4.8538,-4.8552,-4.8579,-4.85,-4.879,-4.8818,-4.8844,-4.8934,-4.8971,-4.8532,-4.853,-4.8529,-4.8528,0,-4.8531,-4.8596,-4.8685,-4.869,-4.8717,-4.8813,-4.8736,-4.8774,-4.8709,-4.8668,-4.8775,-4.8753,-4.8786,-4.8814,-4.8751,-4.8943,-4.89,-4.8808,-4.8667,-4.8899,-4.8982,-4.9016,-4.855,-4.8545,-4.8542,-4.8538,0,0,-4.8925,-4.8881,-4.8915,-4.8916,-4.8895,-4.8944,-4.9035,-4.9065,-4.91,-4.9108,-4.9181,-4.9254,-4.9169,-4.9181,-4.9118,-4.9193,-4.9408,-4.909,-4.9089,-4.915,-4.9618,-4.9687,-4.9728,-4.9349,-4.9355,-4.936,-4.9618,0,-4.9182,-4.9331,-4.9253,-4.9413,-4.9472,-4.9345,-4.9423,-4.942,-4.9385,-4.9431,-4.9393,-4.9446,-4.933,-4.9336,-4.9405,-4.9367,-4.95,-4.9348,-4.9416,-4.942,-4.942,-4.9772,-4.9844,-5.0088,-4.965,-4.9656,-4.966,0,-4.95,-4.9521,-4.9688,-4.9657,-4.9678,-4.975,-4.9773,-4.9819,-4.9813,-4.9782,-4.9798,-4.9717,-4.9804,-4.9668,-4.9787,-4.9685,-4.9709,-4.9696,-4.9703,-4.9705,-4.9553,-4.9782,-5.0164,-5.0201,-4.971,-4.9706,-4.9703,0,-4.977,-4.984,-4.9948,-4.9954,-4.9921,-4.9975,-4.9964,-4.9951,-4.9975,-4.9996,-5.001,-5.0042,-5.0059,-5.0086,-5.0016,-4.9923,-5.0146,-5.0003,-5.0123,-5.0125,-5.0174,-5.0171,-5.0564,-5.0193,-5.0192,-5.0191,-5.0191,0,-5.0063,-5.017,-5.0069,-5.0136,-5.0253,-5.0162,-5.028,-5.0256,-5.0246,-5.0306,-5.0199,-5.0259,-5.0163,-5.0214,-5.0161,-5.0268,-5.0277,-5.0255,-5.0239,-5.0264,-5.0266,-5.0276,-5.0257,-5.0201,-5.0199,-5.0197,-5.0195,0,-5.0382,-5.032,-5.0429,-5.039,-5.0383,-5.047,-5.0437,-5.0498,-5.0456,-5.0535,-5.0548,-5.0484,-5.0538,-5.0472,-5.052,-5.0484,-5.063,-5.059,-5.0632,-5.0619,-5.0743,-5.0732,-5.1154,-5.1205,-5.0803,-5.0807,-5.0811,0,-5.0572,-5.0651,-5.0621,-5.0654,-5.0649,-5.0703,-5.0727,-5.0643,-5.0673,-5.0674,-5.0735,-5.078,-5.0811,-5.0904,-5.0862,-5.0899,-5.0858,-5.1004,-5.0863,-5.0885,-5.0859,-5.0854,-5.0862,-5.1032,-5.1037,-5.1041,-5.1044,0,-5.0916,-5.0882,-5.092,-5.095,-5.0982,-5.1001,-5.1011,-5.1045,-5.0956,-5.0996,-5.105,-5.1074,-5.1124,-5.117,-5.1196,-5.1186,-5.1102,-5.1089,-5.1119,-5.1143,-5.1164,-5.1154,-5.0708,-5.1079,-5.1076,-5.1073,-5.1071,-5.107,-5.1175,-5.124,-5.1229,-5.1276,-5.1276,-5.1289,-5.1344,-5.1311,-5.1354,-5.1387,-5.1335,-5.1403,-5.1397,-5.1423,-5.1423,-5.1475,-5.1413,-5.1456,-5.1466,-5.1478,-5.1496,-5.1158,-5.148,-5.1479,-5.1478,-5.1477,-5.1476,0,-5.1512,-5.1499,-5.1544,-5.1562,-5.1601,-5.1518,-5.1527,-5.1564,-5.1624,-5.1626,-5.1659,-5.1722,-5.1767,-5.1731,-5.1768,-5.1818,-5.178,-5.183,-5.1825,-5.1824,-5.155,-5.152,-5.186,-5.186,-5.186,-5.186,-5.186,-5.186,-5.1691,-5.1796,-5.1761,-5.1866,-5.1852,-5.1917,-5.1929,-5.1941,-5.1942,-5.2017,-5.2054,-5.2029,-5.2016,-5.2052,-5.2091,-5.2079,-5.2097,-5.2161,-5.2136,-5.1881,-5.1843,-5.1807,-5.1778,-5.2167,-5.2167,-5.2404,-5.2407,-5.2408]},{"header":{"parameterUnit":"m.s-1","parameterCategory":1,"la1":30.2991,"la2":30.254,"lo1":-89.0895,"lo2":-89.0444,"dy":0.0017,"dx":0.0017,"nx":28,"ny":28,"refTime":"2023-10-25T09:00:00:Z","depth":0,"parameterNumber":3,"parameterNumberName":"V-component_of_WINDS"},"data":[0,0,0,0,0,0,0,0,0,0,0,0,0,0,0,0,0,0,0,0,0,0,0,0,0,0,0,0,0,0,0,0,0,0,0,0,0,0,0,0,0,0,0,0,0,0,0,0,0,0,0,0,0,0,0,0,0,0,0.0247,0.0244,0,-0.0036,-0.0039,-0.0042,-0.0293,-0.0296,-0.0299,-0.0302,-0.0593,-0.0598,-0.0603,0,0,0,0,0,0,0,0,0,0,0,0,0,0.057,0.0565,0.0247,0.0244,0.024,-0.0035,-0.0039,-0.0043,-0.0293,-0.0296,-0.03,-0.0303,-0.0591,-0.0597,-0.0603,0,0,0,0,0,0,0,0,0,0,0,0,0,0.0373,0.0564,0.0248,0.0083,0.0065,-0.0035,-0.004,-0.0044,-0.0292,-0.0296,-0.0301,-0.0305,-0.0589,-0.0596,-0.0604,-0.0563,0,0,-0.0627,-0.063,0,0,0,0,0,0,0,0,0.0384,0.0361,0.011,0.0094,0.0074,-0.0134,-0.0033,-0.0218,-0.0291,-0.0156,-0.0302,-0.0307,-0.0436,-0.0457,-0.05,-0.0577,-0.0589,-0.0628,-0.0632,-0.0635,-0.0638,0,0,0,0,0,0,0,0.0398,0.0372,0.0135,0.0107,0.0085,0.0022,-0.0011,-0.0069,-0.0269,-0.0168,-0.0187,-0.0217,-0.0447,-0.0492,-0.0509,-0.0593,-0.0627,-0.0634,-0.0639,-0.0642,-0.065,-0.0646,0,0,0,0,0,0,0.0438,0.0385,0.0144,0.0126,0.0222,0.002,-0.0017,-0.0063,-0.0269,-0.0304,-0.0213,-0.0228,-0.0477,-0.05,-0.052,-0.0486,-0.0635,-0.0642,-0.0647,-0.0654,-0.0649,-0.0645,0,0,0,0,0,0,0.0445,0.0418,0.0155,0.025,0.0212,0.0019,-0.003,-0.0066,-0.0112,-0.0303,-0.0339,-0.0222,-0.0482,-0.051,-0.055,-0.0499,-0.0646,-0.0653,-0.0659,-0.0653,-0.0647,-0.0415,0,0,0,0,0,0,0.0456,0.0423,0.0437,0.0253,0.0208,0.0131,-0.0027,-0.0068,-0.0124,-0.0145,-0.0321,-0.0354,-0.0487,-0.0538,-0.0558,-0.0512,-0.0659,-0.0665,-0.0657,-0.0649,-0.0428,-0.0401,-0.0378,0,0,0,0,0,0.0468,0.0513,0.0439,0.0411,0.0222,0.0135,0.0109,-0.0044,-0.0118,-0.0106,-0.0229,-0.0349,-0.0501,-0.054,-0.0565,-0.052,-0.0669,-0.0659,-0.065,-0.0439,-0.0406,-0.0379,0,0,0,0,0,0,0.0707,0.0486,0.0401,0.0388,0.0282,0.0093,0.0103,-0.0005,-0.0093,-0.0109,-0.0297,-0.0334,-0.0354,-0.0442,-0.0481,-0.0491,-0.0601,-0.0596,-0.0433,-0.0403,-0.0379,-0.0357,-0.0665,0,0,0,0,0,0.0758,0.0707,0.0516,0.0522,0.0474,0.0299,0.0255,0.0146,0.0029,-0.0018,-0.0144,-0.0253,-0.0326,-0.037,-0.0448,-0.0442,-0.0484,-0.0424,-0.0399,-0.0378,-0.0371,-0.0374,-0.0349,-0.0613,-0.0613,-0.0613,0,0,0.0863,0.0736,0.0715,0.0567,0.0472,0.0423,0.0263,0.0217,0.0178,-0.0025,-0.007,-0.0166,-0.0301,-0.0318,-0.0332,-0.0392,-0.0307,-0.0366,-0.0347,-0.0352,-0.0361,-0.0336,-0.0313,-0.0606,-0.0607,-0.0608,0,0,0.103,0.0928,0.0923,0.0832,0.0691,0.0574,0.0574,0.04,0.0329,0.0281,0.0127,0.0078,-0.0043,-0.0133,-0.0194,-0.006,-0.0173,-0.008,0.005,0.005,0.007,0.0088,0.0137,0.0157,-0.0073,-0.0072,-0.0072,0,0.1178,0.1099,0.0934,0.0898,0.0838,0.0652,0.0646,0.0565,0.0406,0.0369,0.0304,0.0147,0.0043,0.0004,0.0037,-0.0007,-0.0014,-0.006,0.0081,0.0097,0.0111,0.0155,0.0174,-0.006,-0.0061,-0.0063,-0.0064,0,0.1289,0.1236,0.1248,0.1101,0.1042,0.1022,0.0854,0.0813,0.071,0.06,0.0553,0.0422,0.0315,0.0297,0.0194,0.0243,0.021,0.0116,0.0002,0.0151,0.019,0.0206,-0.0042,-0.0047,-0.005,-0.0053,0,0,0.1598,0.1361,0.1368,0.13,0.1131,0.1087,0.1058,0.0954,0.0924,0.082,0.0791,0.0693,0.0604,0.0535,0.0421,0.0421,0.0537,0.0325,0.0319,0.0371,0.0584,0.0658,0.068,0.046,0.0463,0.0465,0.0596,0,0.1738,0.1676,0.1528,0.1512,0.1462,0.1285,0.1259,0.1153,0.105,0.0991,0.0876,0.081,0.0698,0.0655,0.0647,0.0525,0.0578,0.0513,0.0432,0.0432,0.0474,0.07,0.0777,0.0907,0.061,0.0612,0.0614,0,0.1893,0.1803,0.1783,0.1618,0.1591,0.1572,0.1465,0.1411,0.1287,0.1212,0.1136,0.101,0.0969,0.0863,0.0805,0.0765,0.0722,0.0658,0.0659,0.0647,0.0533,0.0696,0.0944,0.0965,0.0636,0.0634,0.0632,0,0.2123,0.1996,0.1968,0.1914,0.1721,0.1711,0.163,0.1501,0.1449,0.1355,0.132,0.1223,0.117,0.1097,0.0949,0.0885,0.0908,0.0789,0.0844,0.0849,0.0858,0.086,0.1106,0.0829,0.0829,0.0829,0.0828,0,0.2296,0.2291,0.2069,0.2052,0.2041,0.187,0.1864,0.1766,0.1653,0.1614,0.1454,0.142,0.1225,0.1168,0.1051,0.1022,0.0998,0.0937,0.0906,0.0952,0.0961,0.0923,0.0911,0.0834,0.0833,0.0832,0.0831,0,0.2551,0.2402,0.236,0.2181,0.2136,0.2137,0.1983,0.1959,0.1847,0.1799,0.1778,0.1601,0.1526,0.137,0.1252,0.1173,0.1172,0.1116,0.1216,0.1197,0.1262,0.1259,0.1493,0.1516,0.1225,0.1228,0.1231,0,0.2672,0.2665,0.2486,0.2449,0.2375,0.2316,0.2262,0.2093,0.2044,0.1902,0.1897,0.181,0.1731,0.162,0.1481,0.139,0.1332,0.142,0.1317,0.1364,0.1335,0.1338,0.1337,0.1444,0.1448,0.1452,0.1454,0,0.2904,0.283,0.276,0.2664,0.2605,0.2521,0.2427,0.2406,0.2215,0.2167,0.209,0.2029,0.191,0.1826,0.1715,0.1629,0.1511,0.1488,0.1496,0.1544,0.1603,0.1573,0.128,0.1483,0.148,0.1478,0.1477,0.1476,0.3095,0.3081,0.2954,0.2881,0.2794,0.2711,0.2681,0.2565,0.2498,0.2389,0.2293,0.2225,0.21,0.1939,0.1862,0.1805,0.1747,0.1759,0.1762,0.1768,0.1789,0.1611,0.1784,0.1783,0.1782,0.1781,0.178,0,0.332,0.323,0.3164,0.3041,0.2983,0.2877,0.2769,0.2728,0.2671,0.2565,0.2492,0.2404,0.2322,0.2177,0.2082,0.2065,0.2008,0.2046,0.2047,0.2029,0.1845,0.1848,0.2094,0.2094,0.2094,0.2094,0.2094,0.2094,0.343,0.3401,0.3314,0.324,0.3148,0.3082,0.3029,0.2952,0.2868,0.2777,0.2709,0.2615,0.2493,0.2389,0.2309,0.2268,0.2241,0.2297,0.224,0.2071,0.2042,0.2014,0.2016,0.2293,0.2293,0.2428,0.2429,0.243]}]]